Location: Aragoneses
(41.0275°N, 4.3847°W)
Time: 20:01:47
(UTC+00:00)

BlueWalker 3 - Pass Details

Date: 11 December 2025
Orbit: 452 x 463 km, 53.2° (Epoch: 12 January)

Event Time Altitude Azimuth Distance (km) Brightness Sun altitude
Rises 17:56:50 0° 298° (WNW) 2,492 6.1 -12.4°
Reaches altitude 10° 17:59:13 10° 285° (WNW) 1,614 5.4 -12.8°
Maximum altitude 18:02:14 25° 229° (SW) 981 4.2 -13.3°
Drops below altitude 10° 18:05:14 10° 173° (S) 1,606 4.6 -13.9°
Sets 18:07:36 0° 159° (SSE) 2,476 5.4 -14.3°
